Weather History for KPUC - October, 2012

Change the Weather History Date:

Wednesday, October 3, 2012

  Actual Average Record
Temperature  
Mean Temperature 63 °F -  
Max Temperature 81 °F 68 °F 84 °F (1979)
Min Temperature 46 °F 41 °F 31 °F (1971)
Degree Days  
Heating Degree Days 2    
Growing Degree Days 13 (Base 50)    
Moisture  
Dew Point 20 °F    
Average Humidity 22    
Maximum Humidity 41    
Minimum Humidity 10    
Precipitation  
Precipitation 0.00 in - - ()
Sea Level Pressure  
Sea Level Pressure 29.91 in    
Wind  
Wind Speed 8 mph (NNW)    
Max Wind Speed 26 mph    
Max Gust Speed 34 mph    
Visibility 10 miles    
Events      
Averages and records for this station are not official NWS values.
T = Trace of Precipitation, MM = Missing Value Source: NWS Daily Summary

Daily Weather History Graph

Daily Weather History Graph

Search for Another Location

Airport or City:

Trip Planner

Search our weather history database for the weather conditions in past years. The results will help you decide how hot, cold, wet, or windy it might be!

Date:

Astronomy

Oct. 03, 2012 Rise Set
Actual Time 7:21 AM MDT 7:01 PM MDT
Civil Twilight 6:54 AM MDT 7:28 PM MDT
Nautical Twilight 6:23 AM MDT 7:59 PM MDT
Astronomical Twilight 5:52 AM MDT 8:30 PM MDT
Moon 8:57 PM MDT (10/3) 10:47 AM MDT (10/3)
Length of Visible Light 12h 33m
Length of Day
11h 39m
Waning Gibbous, 88% of the Moon is Illuminated
Oct 3
Waning Gibbous
Oct 8
Last Quarter
Oct 15
New
Oct 21
First Quarter
Oct 29
Full

Hourly Weather History & Observations

Time (MDT) Temp. Dew Point Humidity Pressure Visibility Wind Dir Wind Speed Gust Speed Precip Events Conditions
12:53 AM 53.1 °F 25.0 °F 34% 29.88 in 10.0 mi NE 4.6 mph - N/A   Clear
1:53 AM 52.0 °F 24.1 °F 34% 29.88 in 10.0 mi NNE 3.5 mph - N/A   Clear
2:53 AM 53.1 °F 25.0 °F 34% 29.87 in 10.0 mi NE 9.2 mph - N/A   Clear
3:53 AM 50.0 °F 24.8 °F 37% 30.06 in 10.0 mi North 5.8 mph - N/A   Clear
4:53 AM 50.0 °F 25.0 °F 38% 29.88 in 10.0 mi NNE 6.9 mph - N/A   Clear
5:53 AM 51.1 °F 25.0 °F 36% 29.89 in 10.0 mi NNE 5.8 mph - N/A   Clear
6:53 AM 46.9 °F 24.1 °F 41% 29.92 in 10.0 mi NNW 4.6 mph - N/A   Clear
7:53 AM 50.0 °F 25.0 °F 38% 29.93 in 10.0 mi NE 6.9 mph - N/A   Clear
8:53 AM 59.0 °F 26.1 °F 28% 29.94 in 10.0 mi South 3.5 mph - N/A   Clear
9:53 AM 64.0 °F 26.1 °F 24% 29.94 in 10.0 mi Variable 3.5 mph - N/A   Clear
10:53 AM 68.0 °F 25.0 °F 20% 29.92 in 10.0 mi SE 5.8 mph - N/A   Clear
11:53 AM 72.0 °F 25.0 °F 17% 29.90 in 10.0 mi SSW 6.9 mph - N/A   Clear
12:53 PM 79.0 °F 19.0 °F 11% 29.87 in 10.0 mi West 20.7 mph 31.1 mph N/A   Clear
1:53 PM 80.1 °F 19.0 °F 10% 29.84 in 10.0 mi West 19.6 mph 33.4 mph N/A   Clear
2:53 PM 79.0 °F 17.1 °F 10% 29.84 in 10.0 mi West 26.5 mph 33.4 mph N/A   Clear
3:53 PM 79.0 °F 17.1 °F 10% 29.86 in 10.0 mi West 21.9 mph 33.4 mph N/A   Clear
4:53 PM 78.1 °F 17.1 °F 10% 29.88 in 10.0 mi West 15.0 mph 34.5 mph N/A   Clear
5:53 PM 73.9 °F 17.1 °F 12% 29.91 in 10.0 mi WNW 21.9 mph 34.5 mph N/A   Clear
6:53 PM 71.1 °F 16.0 °F 12% 29.96 in 10.0 mi NNW 6.9 mph 27.6 mph N/A   Clear
7:53 PM 66.9 °F 16.0 °F 14% 29.96 in 10.0 mi NNW 12.7 mph - N/A   Clear
8:53 PM 62.1 °F 16.0 °F 17% 29.95 in 10.0 mi South 3.5 mph - N/A   Clear
9:53 PM 62.1 °F 10.0 °F 13% 29.95 in 10.0 mi NNE 9.2 mph - N/A   Clear
10:53 PM 61.0 °F 9.0 °F 13% 29.94 in 10.0 mi NNE 11.5 mph - N/A   Clear
11:53 PM 57.0 °F 8.1 °F 14% 29.95 in 10.0 mi North 8.1 mph - N/A   Clear